Time,TemperatureF,DewpointF,PressureIn,WindDirection,WindDirectionDegrees,WindSpeedMPH,WindSpeedGustMPH,Humidity,HourlyPrecipIn,Conditions,Clouds,dailyrainin,SolarRadiationWatts/m^2,SoftwareType,DateUTC
2013-06-05 00:00:00,61.7,48.1,30.09,WNW,293,0.0,0.0,61,0.00,,BKN250,0.00,0.00,VWS V14.01,2013-06-05 04:00:00,
2013-06-05 00:01:00,61.8,47.8,30.09,WNW,293,0.0,0.0,60,0.00,,FEW250,0.00,0.00,VWS V14.01,2013-06-05 04:01:00,
2013-06-05 00:05:00,61.4,47.8,30.09,WNW,293,0.0,1.0,61,0.00,,BKN250,0.00,0.00,VWS V14.01,2013-06-05 04:05:00,
2013-06-05 00:06:00,61.5,47.9,30.09,WNW,293,0.0,1.0,61,0.00,,FEW250,0.00,0.00,VWS V14.01,2013-06-05 04:06:00,
2013-06-05 00:10:00,61.1,48.4,30.09,WNW,293,0.0,0.0,63,0.00,,BKN250,0.00,0.00,VWS V14.01,2013-06-05 04:10:00,
2013-06-05 00:11:00,61.2,47.7,30.09,WNW,293,0.0,0.0,61,0.00,,FEW250,0.00,0.00,VWS V14.01,2013-06-05 04:11:00,
2013-06-05 00:15:00,60.8,49.0,30.09,WNW,293,0.0,0.0,65,0.00,,BKN250,0.00,0.00,VWS V14.01,2013-06-05 04:15:00,
2013-06-05 00:16:00,61.0,48.8,30.09,WNW,293,0.0,0.0,64,0.00,,FEW250,0.00,0.00,VWS V14.01,2013-06-05 04:16:00,
2013-06-05 00:20:00,60.6,48.0,30.09,WNW,293,0.0,2.0,63,0.00,,BKN250,0.00,0.00,VWS V14.01,2013-06-05 04:20:00,
2013-06-05 00:21:00,60.7,48.0,30.09,WNW,293,1.0,2.0,63,0.00,,FEW250,0.00,0.00,VWS V14.01,2013-06-05 04:21:00,
2013-06-05 00:25:00,60.5,47.9,30.09,WNW,293,0.0,0.0,63,0.00,,BKN250,0.00,0.00,VWS V14.01,2013-06-05 04:25:00,
2013-06-05 00:27:00,60.6,48.0,30.09,WNW,293,0.0,0.0,63,0.00,,FEW250,0.00,0.00,VWS V14.01,2013-06-05 04:27:00,
2013-06-05 00:30:00,60.4,48.6,30.09,WNW,293,0.0,1.0,65,0.00,,BKN250,0.00,0.00,VWS V14.01,2013-06-05 04:30:00,
2013-06-05 00:32:00,60.5,48.3,30.09,WNW,293,0.0,1.0,64,0.00,,FEW250,0.00,0.00,VWS V14.01,2013-06-05 04:32:00,
2013-06-05 00:35:00,60.0,49.0,30.09,WNW,293,0.0,1.0,67,0.00,,BKN250,0.00,0.00,VWS V14.01,2013-06-05 04:35:00,
2013-06-05 00:37:00,60.1,49.1,30.10,WNW,293,0.0,1.0,67,0.00,,FEW250,0.00,0.00,VWS V14.01,2013-06-05 04:37:00,
2013-06-05 00:40:00,59.6,49.0,30.09,WNW,293,0.0,0.0,68,0.00,,BKN250,0.00,0.00,VWS V14.01,2013-06-05 04:40:00,
2013-06-05 00:42:00,59.8,49.2,30.09,WNW,293,0.0,0.0,68,0.00,,FEW250,0.00,0.00,VWS V14.01,2013-06-05 04:42:00,
2013-06-05 00:45:00,59.3,48.8,30.10,WNW,293,0.0,0.0,68,0.00,,BKN250,0.00,0.00,VWS V14.01,2013-06-05 04:45:00,
2013-06-05 00:47:00,59.4,49.2,30.09,WNW,293,0.0,0.0,69,0.00,,FEW250,0.00,0.00,VWS V14.01,2013-06-05 04:47:00,
2013-06-05 00:50:00,59.0,48.9,30.10,WNW,293,0.0,0.0,69,0.00,,BKN250,0.00,0.00,VWS V14.01,2013-06-05 04:50:00,
2013-06-05 00:52:00,59.1,48.6,30.10,WNW,293,0.0,0.0,68,0.00,,FEW250,0.00,0.00,VWS V14.01,2013-06-05 04:52:00,
2013-06-05 00:55:00,58.7,49.0,30.09,WNW,293,0.0,0.0,70,0.00,,BKN250,0.00,0.00,VWS V14.01,2013-06-05 04:55:00,
2013-06-05 00:57:00,58.8,49.0,30.10,WNW,293,0.0,0.0,70,0.00,,FEW250,0.00,0.00,VWS V14.01,2013-06-05 04:57:00,
2013-06-05 01:00:00,58.4,49.0,30.10,WNW,293,0.0,0.0,71,0.00,,BKN250,0.00,0.00,VWS V14.01,2013-06-05 05:00:00,
2013-06-05 01:02:00,58.5,49.1,30.10,WNW,293,0.0,0.0,71,0.00,,SCT250,0.00,0.00,VWS V14.01,2013-06-05 05:02:00,
2013-06-05 01:05:00,58.1,48.8,30.10,WNW,293,0.0,0.0,71,0.00,,BKN250,0.00,0.00,VWS V14.01,2013-06-05 05:05:00,
2013-06-05 01:10:00,57.9,48.9,30.10,WNW,293,0.0,0.0,72,0.00,,BKN250,0.00,0.00,VWS V14.01,2013-06-05 05:10:00,
2013-06-05 01:15:00,57.7,48.8,30.10,WNW,293,0.0,0.0,72,0.00,,BKN250,0.00,0.00,VWS V14.01,2013-06-05 05:15:00,
2013-06-05 01:20:00,57.6,49.4,30.09,WNW,293,0.0,0.0,74,0.00,,BKN250,0.00,0.00,VWS V14.01,2013-06-05 05:20:00,
2013-06-05 01:25:00,57.4,49.2,30.09,WNW,293,1.0,1.0,74,0.00,,BKN250,0.00,0.00,VWS V14.01,2013-06-05 05:25:00,
2013-06-05 01:30:00,57.2,48.6,30.10,WNW,293,0.0,2.0,73,0.00,,BKN250,0.00,0.00,VWS V14.01,2013-06-05 05:30:00,
2013-06-05 01:35:00,56.9,49.1,30.10,WNW,293,0.0,0.0,75,0.00,,BKN250,0.00,0.00,VWS V14.01,2013-06-05 05:35:00,
2013-06-05 01:40:00,56.7,48.9,30.10,WNW,293,0.0,0.0,75,0.00,,BKN250,0.00,0.00,VWS V14.01,2013-06-05 05:40:00,
2013-06-05 01:45:00,56.5,48.0,30.10,ENE,67,0.0,3.0,73,0.00,,BKN250,0.00,0.00,VWS V14.01,2013-06-05 05:45:00,
2013-06-05 01:50:00,56.5,46.5,30.10,ENE,67,0.0,2.0,69,0.00,,BKN250,0.00,0.00,VWS V14.01,2013-06-05 05:50:00,
2013-06-05 01:55:00,56.6,48.1,30.10,ENE,67,0.0,1.0,73,0.00,,BKN250,0.00,0.00,VWS V14.01,2013-06-05 05:55:00,
2013-06-05 02:00:00,56.6,47.7,30.10,ENE,67,0.0,1.0,72,0.00,,BKN250,0.00,0.00,VWS V14.01,2013-06-05 06:00:00,
2013-06-05 02:05:00,56.5,47.2,30.10,ENE,67,1.0,1.0,71,0.00,,BKN250,0.00,0.00,VWS V14.01,2013-06-05 06:05:00,
2013-06-05 02:10:00,56.3,48.1,30.10,ENE,67,1.0,2.0,74,0.00,,BKN250,0.00,0.00,VWS V14.01,2013-06-05 06:10:00,
2013-06-05 02:15:00,56.1,47.9,30.10,ENE,67,0.0,1.0,74,0.00,,BKN250,0.00,0.00,VWS V14.01,2013-06-05 06:15:00,
2013-06-05 02:20:00,56.0,47.1,30.10,ENE,67,0.0,1.0,72,0.00,,BKN250,0.00,0.00,VWS V14.01,2013-06-05 06:20:00,
2013-06-05 02:25:00,55.9,46.7,30.10,ENE,67,0.0,1.0,71,0.00,,BKN250,0.00,0.00,VWS V14.01,2013-06-05 06:25:00,
2013-06-05 02:30:00,55.7,46.1,30.10,ENE,67,0.0,1.0,70,0.00,,BKN250,0.00,0.00,VWS V14.01,2013-06-05 06:30:00,
2013-06-05 02:35:00,55.7,46.8,30.11,ENE,67,0.0,0.0,72,0.00,,BKN250,0.00,0.00,VWS V14.01,2013-06-05 06:35:00,
2013-06-05 02:40:00,55.6,47.1,30.11,ENE,67,0.0,0.0,73,0.00,,BKN250,0.00,0.00,VWS V14.01,2013-06-05 06:40:00,
2013-06-05 02:45:00,55.3,46.8,30.10,ENE,67,0.0,0.0,73,0.00,,BKN250,0.00,0.00,VWS V14.01,2013-06-05 06:45:00,
2013-06-05 02:50:00,55.3,46.8,30.10,ENE,67,0.0,0.0,73,0.00,,SCT250,0.00,0.00,VWS V14.01,2013-06-05 06:50:00,
2013-06-05 02:55:00,55.1,46.6,30.10,ENE,67,0.0,0.0,73,0.00,,SCT250,0.00,0.00,VWS V14.01,2013-06-05 06:55:00,
2013-06-05 03:00:00,55.0,46.5,30.10,ENE,67,0.0,0.0,73,0.00,,BKN250,0.00,0.00,VWS V14.01,2013-06-05 07:00:00,
2013-06-05 03:05:00,54.9,46.4,30.10,ENE,67,0.0,0.0,73,0.00,,BKN250,0.00,0.00,VWS V14.01,2013-06-05 07:05:00,
2013-06-05 03:10:00,54.8,46.3,30.10,ENE,67,0.0,0.0,73,0.00,,BKN250,0.00,0.00,VWS V14.01,2013-06-05 07:10:00,
2013-06-05 03:15:00,54.8,46.3,30.10,ENE,67,0.0,0.0,73,0.00,,BKN250,0.00,0.00,VWS V14.01,2013-06-05 07:15:00,
2013-06-05 03:20:00,54.7,46.6,30.10,ENE,67,0.0,0.0,74,0.00,,BKN250,0.00,0.00,VWS V14.01,2013-06-05 07:20:00,
2013-06-05 03:25:00,54.6,45.8,30.10,ENE,67,0.0,0.0,72,0.00,,BKN250,0.00,0.00,VWS V14.01,2013-06-05 07:25:00,
2013-06-05 03:30:00,54.6,45.8,30.10,ENE,67,0.0,0.0,72,0.00,,BKN250,0.00,0.00,VWS V14.01,2013-06-05 07:30:00,
2013-06-05 03:35:00,54.5,45.7,30.10,ENE,67,0.0,0.0,72,0.00,,SCT250,0.00,0.00,VWS V14.01,2013-06-05 07:35:00,
2013-06-05 03:40:00,54.5,45.7,30.11,ENE,67,0.0,0.0,72,0.00,,SCT250,0.00,0.00,VWS V14.01,2013-06-05 07:40:00,
2013-06-05 03:45:00,54.5,46.0,30.11,ENE,67,0.0,0.0,73,0.00,,SCT250,0.00,0.00,VWS V14.01,2013-06-05 07:45:00,
2013-06-05 03:50:00,54.5,45.7,30.11,ENE,67,0.0,0.0,72,0.00,,SCT250,0.00,0.00,VWS V14.01,2013-06-05 07:50:00,
2013-06-05 03:55:00,54.6,45.8,30.11,ENE,67,0.0,0.0,72,0.00,,SCT250,0.00,0.00,VWS V14.01,2013-06-05 07:55:00,
2013-06-05 04:00:00,54.7,45.5,30.11,NE,46,1.0,4.0,71,0.00,,SCT250,0.00,0.00,VWS V14.01,2013-06-05 08:00:00,
2013-06-05 04:05:00,55.1,45.5,30.12,ENE,65,0.0,2.0,70,0.00,,SCT250,0.00,0.00,VWS V14.01,2013-06-05 08:05:00,
2013-06-05 04:10:00,55.3,45.3,30.12,ENE,65,0.0,3.0,69,0.00,,SCT250,0.00,0.00,VWS V14.01,2013-06-05 08:10:00,
2013-06-05 04:15:00,55.3,45.3,30.12,ENE,65,0.0,1.0,69,0.00,,SCT250,0.00,0.00,VWS V14.01,2013-06-05 08:15:00,
2013-06-05 04:20:00,55.4,46.5,30.12,ENE,65,1.0,1.0,72,0.00,,SCT250,0.00,0.00,VWS V14.01,2013-06-05 08:20:00,
2013-06-05 04:25:00,55.3,46.8,30.12,ENE,65,0.0,0.0,73,0.00,,SCT250,0.00,0.00,VWS V14.01,2013-06-05 08:25:00,
2013-06-05 04:30:00,55.0,46.9,30.12,ENE,65,0.0,0.0,74,0.00,,SCT250,0.00,0.00,VWS V14.01,2013-06-05 08:30:00,
2013-06-05 04:35:00,54.8,47.0,30.12,ENE,65,0.0,0.0,75,0.00,,FEW250,0.00,0.00,VWS V14.01,2013-06-05 08:35:00,
2013-06-05 04:40:00,54.6,46.5,30.12,ENE,65,0.0,0.0,74,0.00,,FEW250,0.00,0.00,VWS V14.01,2013-06-05 08:40:00,
2013-06-05 04:45:00,54.4,46.3,30.12,ENE,65,0.0,0.0,74,0.00,,FEW250,0.00,0.00,VWS V14.01,2013-06-05 08:45:00,
2013-06-05 04:50:00,54.2,46.1,30.11,ENE,65,0.0,1.0,74,0.00,,FEW250,0.00,0.00,VWS V14.01,2013-06-05 08:50:00,
2013-06-05 04:55:00,54.0,46.3,30.12,ENE,65,0.0,0.0,75,0.00,,FEW250,0.00,0.00,VWS V14.01,2013-06-05 08:55:00,
2013-06-05 05:00:00,53.8,46.1,30.12,ENE,65,0.0,0.0,75,0.00,,FEW250,0.00,0.00,VWS V14.01,2013-06-05 09:00:00,
2013-06-05 05:05:00,53.5,46.1,30.12,ENE,65,0.0,0.0,76,0.00,,FEW250,0.00,0.00,VWS V14.01,2013-06-05 09:05:00,
2013-06-05 05:10:00,53.3,46.3,30.12,ENE,65,0.0,0.0,77,0.00,,FEW250,0.00,0.00,VWS V14.01,2013-06-05 09:10:00,
2013-06-05 05:15:00,53.2,46.2,30.12,ENE,65,0.0,0.0,77,0.00,,FEW250,0.00,0.00,VWS V14.01,2013-06-05 09:15:00,
2013-06-05 05:20:00,53.0,46.3,30.13,ENE,65,0.0,0.0,78,0.00,,FEW250,0.00,0.00,VWS V14.01,2013-06-05 09:20:00,
2013-06-05 05:25:00,53.0,46.3,30.13,ENE,65,0.0,0.0,78,0.00,,FEW250,0.00,0.00,VWS V14.01,2013-06-05 09:25:00,
2013-06-05 05:30:00,53.0,46.3,30.14,NE,39,0.0,1.0,78,0.00,,FEW250,0.00,5.00,VWS V14.01,2013-06-05 09:30:00,
2013-06-05 05:35:00,53.0,46.7,30.14,NE,39,0.0,1.0,79,0.00,,SCT250,0.00,9.00,VWS V14.01,2013-06-05 09:35:00,
2013-06-05 05:40:00,53.0,46.7,30.14,NE,39,0.0,0.0,79,0.00,,SCT250,0.00,11.00,VWS V14.01,2013-06-05 09:40:00,
2013-06-05 05:45:00,53.0,46.3,30.14,NE,39,0.0,0.0,78,0.00,,SCT250,0.00,14.00,VWS V14.01,2013-06-05 09:45:00,
2013-06-05 05:50:00,53.1,46.4,30.14,NE,39,0.0,1.0,78,0.00,,SCT250,0.00,18.00,VWS V14.01,2013-06-05 09:50:00,
2013-06-05 05:55:00,53.2,46.5,30.14,NE,39,0.0,0.0,78,0.00,,SCT250,0.00,21.00,VWS V14.01,2013-06-05 09:55:00,
2013-06-05 06:00:00,53.3,46.6,30.14,NE,39,0.0,0.0,78,0.00,,SCT250,0.00,28.00,VWS V14.01,2013-06-05 10:00:00,
2013-06-05 06:05:00,53.5,46.8,30.15,NE,39,0.0,0.0,78,0.00,,SCT250,0.00,35.00,VWS V14.01,2013-06-05 10:05:00,
2013-06-05 06:10:00,54.1,47.1,30.15,NE,39,0.0,2.0,77,0.00,,SCT250,0.00,40.00,VWS V14.01,2013-06-05 10:10:00,
2013-06-05 06:15:00,54.5,47.1,30.15,NE,39,0.0,0.0,76,0.00,,SCT250,0.00,56.00,VWS V14.01,2013-06-05 10:15:00,
2013-06-05 06:20:00,55.1,47.7,30.15,NE,39,0.0,1.0,76,0.00,,SCT250,0.00,70.00,VWS V14.01,2013-06-05 10:20:00,
2013-06-05 06:25:00,55.7,47.9,30.15,NE,39,1.0,1.0,75,0.00,,SCT250,0.00,83.00,VWS V14.01,2013-06-05 10:25:00,
2013-06-05 06:30:00,56.4,47.9,30.15,ENE,61,0.0,2.0,73,0.00,,SCT250,0.00,98.00,VWS V14.01,2013-06-05 10:30:00,
2013-06-05 06:35:00,57.1,48.2,30.16,ENE,61,0.0,1.0,72,0.00,,BKN250,0.00,116.00,VWS V14.01,2013-06-05 10:35:00,
2013-06-05 06:40:00,57.6,48.3,30.16,ENE,61,1.0,1.0,71,0.00,,BKN250,0.00,134.00,VWS V14.01,2013-06-05 10:40:00,
2013-06-05 06:45:00,58.2,48.5,30.16,ENE,61,0.0,2.0,70,0.00,,BKN250,0.00,151.00,VWS V14.01,2013-06-05 10:45:00,
2013-06-05 06:50:00,58.7,48.6,30.16,ENE,61,0.0,2.0,69,0.00,,BKN250,0.00,169.00,VWS V14.01,2013-06-05 10:50:00,
2013-06-05 06:55:00,59.2,48.7,30.17,ENE,61,0.0,2.0,68,0.00,,BKN250,0.00,183.00,VWS V14.01,2013-06-05 10:55:00,
2013-06-05 07:00:00,59.8,49.6,30.17,ENE,61,1.0,2.0,69,0.00,,BKN250,0.00,176.00,VWS V14.01,2013-06-05 11:00:00,
2013-06-05 07:05:00,60.1,49.1,30.17,NE,38,3.0,5.0,67,0.00,,BKN250,0.00,213.00,VWS V14.01,2013-06-05 11:05:00,
2013-06-05 07:10:00,60.3,49.3,30.17,NE,49,3.0,3.0,67,0.00,,BKN250,0.00,229.00,VWS V14.01,2013-06-05 11:10:00,
2013-06-05 07:15:00,60.5,49.5,30.17,ENE,62,2.0,3.0,67,0.00,,BKN250,0.00,241.00,VWS V14.01,2013-06-05 11:15:00,
2013-06-05 07:20:00,60.7,49.3,30.17,ENE,66,0.0,2.0,66,0.00,,BKN250,0.00,258.00,VWS V14.01,2013-06-05 11:20:00,
2013-06-05 07:25:00,60.9,49.1,30.17,ENE,78,3.0,5.0,65,0.00,,BKN250,0.00,276.00,VWS V14.01,2013-06-05 11:25:00,
2013-06-05 07:30:00,60.8,49.4,30.18,ENE,76,2.0,3.0,66,0.00,,BKN250,0.00,285.00,VWS V14.01,2013-06-05 11:30:00,
2013-06-05 07:35:00,61.0,49.6,30.18,ENE,76,0.0,3.0,66,0.00,,BKN250,0.00,299.00,VWS V14.01,2013-06-05 11:35:00,
2013-06-05 07:40:00,61.9,49.2,30.18,ENE,75,2.0,3.0,63,0.00,,BKN250,0.00,316.00,VWS V14.01,2013-06-05 11:40:00,
2013-06-05 07:42:00,61.8,49.5,30.17,ENE,75,3.0,3.0,64,0.00,,BKN250,0.00,325.00,VWS V14.01,2013-06-05 11:42:00,
2013-06-05 07:45:00,62.2,49.5,30.18,ENE,68,3.0,7.0,63,0.00,,BKN250,0.00,260.00,VWS V14.01,2013-06-05 11:45:00,
2013-06-05 07:47:00,62.2,49.9,30.18,ENE,65,7.0,7.0,64,0.00,,BKN250,0.00,346.00,VWS V14.01,2013-06-05 11:47:00,
2013-06-05 07:50:00,62.0,49.7,30.18,ENE,68,1.0,4.0,64,0.00,,BKN250,0.00,353.00,VWS V14.01,2013-06-05 11:50:00,
2013-06-05 07:52:00,62.0,49.3,30.18,ENE,68,2.0,4.0,63,0.00,,BKN250,0.00,352.00,VWS V14.01,2013-06-05 11:52:00,
2013-06-05 07:55:00,62.3,50.0,30.18,ENE,78,2.0,4.0,64,0.00,,BKN250,0.00,373.00,VWS V14.01,2013-06-05 11:55:00,
2013-06-05 07:57:00,62.2,49.9,30.18,ENE,68,2.0,4.0,64,0.00,,BKN250,0.00,369.00,VWS V14.01,2013-06-05 11:57:00,
2013-06-05 08:00:00,62.5,49.8,30.18,ENE,65,2.0,3.0,63,0.00,,BKN250,0.00,392.00,VWS V14.01,2013-06-05 12:00:00,
2013-06-05 08:02:00,62.5,49.8,30.18,ENE,65,3.0,3.0,63,0.00,,BKN250,0.00,387.00,VWS V14.01,2013-06-05 12:02:00,
2013-06-05 08:05:00,62.5,49.8,30.18,ENE,65,1.0,6.0,63,0.00,,BKN250,0.00,408.00,VWS V14.01,2013-06-05 12:05:00,
2013-06-05 08:07:00,62.6,49.4,30.18,ENE,76,0.0,6.0,62,0.00,,BKN250,0.00,403.00,VWS V14.01,2013-06-05 12:07:00,
2013-06-05 08:10:00,62.6,49.8,30.18,East,90,5.0,5.0,63,0.00,,BKN250,0.00,425.00,VWS V14.01,2013-06-05 12:10:00,
2013-06-05 08:12:00,62.6,49.8,30.18,East,91,2.0,4.0,63,0.00,,BKN250,0.00,422.00,VWS V14.01,2013-06-05 12:12:00,
2013-06-05 08:15:00,62.7,49.9,30.18,ENE,77,2.0,5.0,63,0.00,,BKN250,0.00,445.00,VWS V14.01,2013-06-05 12:15:00,
2013-06-05 08:17:00,62.7,49.9,30.18,ENE,78,3.0,5.0,63,0.00,,BKN250,0.00,443.00,VWS V14.01,2013-06-05 12:17:00,
2013-06-05 08:20:00,62.8,50.0,30.19,SE,135,4.0,5.0,63,0.00,,BKN250,0.00,443.00,VWS V14.01,2013-06-05 12:20:00,
2013-06-05 08:22:00,62.8,49.6,30.19,ENE,77,3.0,5.0,62,0.00,,BKN250,0.00,454.00,VWS V14.01,2013-06-05 12:22:00,
2013-06-05 08:25:00,63.2,50.4,30.18,NNE,19,2.0,5.0,63,0.00,,BKN250,0.00,454.00,VWS V14.01,2013-06-05 12:25:00,
2013-06-05 08:27:00,63.1,50.3,30.18,East,84,3.0,5.0,63,0.00,,BKN250,0.00,425.00,VWS V14.01,2013-06-05 12:27:00,
2013-06-05 08:30:00,63.4,50.2,30.18,ENE,76,1.0,6.0,62,0.00,,BKN250,0.00,496.00,VWS V14.01,2013-06-05 12:30:00,
2013-06-05 08:32:00,63.4,50.2,30.18,East,98,2.0,6.0,62,0.00,,BKN250,0.00,490.00,VWS V14.01,2013-06-05 12:32:00,
2013-06-05 08:35:00,63.6,50.4,30.18,ENE,77,2.0,6.0,62,0.00,,BKN250,0.00,478.00,VWS V14.01,2013-06-05 12:35:00,
2013-06-05 08:37:00,63.5,50.7,30.18,East,85,3.0,6.0,63,0.00,,BKN250,0.00,524.00,VWS V14.01,2013-06-05 12:37:00,
2013-06-05 08:40:00,63.9,50.6,30.18,ENE,66,2.0,8.0,62,0.00,,BKN250,0.00,459.00,VWS V14.01,2013-06-05 12:40:00,
2013-06-05 08:42:00,63.9,50.6,30.18,NE,51,6.0,6.0,62,0.00,,BKN250,0.00,480.00,VWS V14.01,2013-06-05 12:42:00,
2013-06-05 08:45:00,63.8,50.5,30.18,NE,36,2.0,8.0,62,0.00,,BKN250,0.00,503.00,VWS V14.01,2013-06-05 12:45:00,
2013-06-05 08:47:00,63.8,50.1,30.19,NE,54,3.0,8.0,61,0.00,,BKN250,0.00,497.00,VWS V14.01,2013-06-05 12:47:00,
2013-06-05 08:50:00,63.9,51.1,30.19,ENE,76,4.0,6.0,63,0.00,,BKN250,0.00,547.00,VWS V14.01,2013-06-05 12:50:00,
2013-06-05 08:52:00,63.9,50.6,30.18,East,88,5.0,6.0,62,0.00,,BKN250,0.00,545.00,VWS V14.01,2013-06-05 12:52:00,
2013-06-05 08:55:00,64.3,51.0,30.19,ENE,61,2.0,4.0,62,0.00,,BKN250,0.00,568.00,VWS V14.01,2013-06-05 12:55:00,
2013-06-05 08:57:00,64.2,51.8,30.19,ENE,69,4.0,4.0,64,0.00,,BKN250,0.00,566.00,VWS V14.01,2013-06-05 12:57:00,
2013-06-05 09:00:00,64.9,51.6,30.19,NNE,32,0.0,6.0,62,0.00,,BKN250,0.00,494.00,VWS V14.01,2013-06-05 13:00:00,
2013-06-05 09:02:00,64.7,51.4,30.19,NNE,22,2.0,6.0,62,0.00,,BKN250,0.00,519.00,VWS V14.01,2013-06-05 13:02:00,
2013-06-05 09:05:00,65.1,51.3,30.19,ENE,64,1.0,5.0,61,0.00,,BKN250,0.00,548.00,VWS V14.01,2013-06-05 13:05:00,
2013-06-05 09:07:00,65.1,51.3,30.19,NE,46,1.0,5.0,61,0.00,,BKN250,0.00,519.00,VWS V14.01,2013-06-05 13:07:00,
2013-06-05 09:10:00,64.9,51.6,30.19,East,82,3.0,5.0,62,0.00,,BKN250,0.00,585.00,VWS V14.01,2013-06-05 13:10:00,
2013-06-05 09:12:00,65.0,51.7,30.19,East,82,3.0,5.0,62,0.00,,BKN250,0.00,566.00,VWS V14.01,2013-06-05 13:12:00,
2013-06-05 09:15:00,65.1,51.8,30.19,North,5,3.0,7.0,62,0.00,,BKN250,0.00,540.00,VWS V14.01,2013-06-05 13:15:00,
2013-06-05 09:17:00,65.0,51.7,30.19,NE,48,1.0,7.0,62,0.00,,BKN250,0.00,615.00,VWS V14.01,2013-06-05 13:17:00,
2013-06-05 09:20:00,65.3,51.5,30.19,NNE,30,0.0,5.0,61,0.00,,BKN250,0.00,448.00,VWS V14.01,2013-06-05 13:20:00,
2013-06-05 09:22:00,65.3,51.5,30.19,NNE,17,4.0,5.0,61,0.00,,BKN250,0.00,487.00,VWS V14.01,2013-06-05 13:22:00,
2013-06-05 09:25:00,65.4,51.6,30.20,NNE,22,3.0,5.0,61,0.00,,BKN250,0.00,473.00,VWS V14.01,2013-06-05 13:25:00,
2013-06-05 09:27:00,65.4,51.6,30.20,NE,49,3.0,5.0,61,0.00,,BKN250,0.00,457.00,VWS V14.01,2013-06-05 13:27:00,
2013-06-05 09:30:00,65.7,51.9,30.19,North,355,6.0,6.0,61,0.00,,BKN250,0.00,531.00,VWS V14.01,2013-06-05 13:30:00,
2013-06-05 09:32:00,65.6,52.2,30.19,NNE,16,3.0,5.0,62,0.00,,BKN250,0.00,538.00,VWS V14.01,2013-06-05 13:32:00,
2013-06-05 09:35:00,65.8,52.4,30.20,North,5,5.0,7.0,62,0.00,,BKN250,0.00,504.00,VWS V14.01,2013-06-05 13:35:00,
2013-06-05 09:37:00,65.7,52.3,30.19,NNE,24,3.0,7.0,62,0.00,,BKN250,0.00,538.00,VWS V14.01,2013-06-05 13:37:00,
2013-06-05 09:40:00,65.7,51.9,30.19,North,355,3.0,6.0,61,0.00,,BKN250,0.00,605.00,VWS V14.01,2013-06-05 13:40:00,
2013-06-05 09:42:00,65.6,51.8,30.19,East,86,2.0,6.0,61,0.00,,BKN250,0.00,606.00,VWS V14.01,2013-06-05 13:42:00,
2013-06-05 09:45:00,65.7,51.9,30.20,North,5,2.0,6.0,61,0.00,,BKN250,0.00,503.00,VWS V14.01,2013-06-05 13:45:00,
2013-06-05 09:47:00,65.7,51.9,30.19,North,5,2.0,6.0,61,0.00,,BKN250,0.00,541.00,VWS V14.01,2013-06-05 13:47:00,
2013-06-05 09:50:00,65.5,52.2,30.19,North,5,4.0,8.0,62,0.00,,BKN250,0.00,608.00,VWS V14.01,2013-06-05 13:50:00,
2013-06-05 09:52:00,65.5,51.7,30.19,NNE,12,3.0,8.0,61,0.00,,BKN250,0.00,550.00,VWS V14.01,2013-06-05 13:52:00,
2013-06-05 09:55:00,65.3,52.4,30.20,North,10,5.0,7.0,63,0.00,,BKN250,0.00,587.00,VWS V14.01,2013-06-05 13:55:00,
2013-06-05 09:57:00,65.4,52.1,30.20,North,9,7.0,7.0,62,0.00,,BKN250,0.00,587.00,VWS V14.01,2013-06-05 13:57:00,
2013-06-05 10:00:00,65.1,52.6,30.20,NE,51,3.0,8.0,64,0.00,,BKN250,0.00,591.00,VWS V14.01,2013-06-05 14:00:00,
2013-06-05 10:02:00,65.1,52.2,30.20,North,5,6.0,7.0,63,0.00,,BKN250,0.00,545.00,VWS V14.01,2013-06-05 14:02:00,
2013-06-05 10:05:00,64.9,52.0,30.20,NNE,32,7.0,9.0,63,0.00,,BKN250,0.00,698.00,VWS V14.01,2013-06-05 14:05:00,
2013-06-05 10:07:00,65.0,52.1,30.20,NNE,20,3.0,9.0,63,0.00,,BKN250,0.00,708.00,VWS V14.01,2013-06-05 14:07:00,
2013-06-05 10:10:00,64.8,51.9,30.20,North,360,3.0,7.0,63,0.00,,BKN250,0.00,737.00,VWS V14.01,2013-06-05 14:10:00,
2013-06-05 10:12:00,64.8,51.9,30.20,North,355,6.0,7.0,63,0.00,,BKN250,0.00,715.00,VWS V14.01,2013-06-05 14:12:00,
2013-06-05 10:15:00,65.2,52.3,30.20,North,5,3.0,7.0,63,0.00,,BKN250,0.00,726.00,VWS V14.01,2013-06-05 14:15:00,
2013-06-05 10:18:00,65.2,52.3,30.20,North,350,6.0,6.0,63,0.00,,BKN250,0.00,726.00,VWS V14.01,2013-06-05 14:18:00,
2013-06-05 10:20:00,65.5,53.0,30.20,NNE,19,4.0,7.0,64,0.00,,BKN250,0.00,749.00,VWS V14.01,2013-06-05 14:20:00,
2013-06-05 10:23:00,65.4,52.9,30.20,NNE,17,4.0,7.0,64,0.00,,BKN250,0.00,740.00,VWS V14.01,2013-06-05 14:23:00,
2013-06-05 10:25:00,65.9,53.0,30.20,NE,36,2.0,8.0,63,0.00,,BKN250,0.00,729.00,VWS V14.01,2013-06-05 14:25:00,
2013-06-05 10:28:00,65.9,53.0,30.20,NNE,28,5.0,8.0,63,0.00,,BKN250,0.00,775.00,VWS V14.01,2013-06-05 14:28:00,
2013-06-05 10:30:00,66.5,53.5,30.20,NE,53,6.0,8.0,63,0.00,,BKN250,0.00,784.00,VWS V14.01,2013-06-05 14:30:00,
2013-06-05 10:33:00,66.3,53.3,30.20,North,360,5.0,8.0,63,0.00,,BKN250,0.00,784.00,VWS V14.01,2013-06-05 14:33:00,
2013-06-05 10:35:00,66.7,52.8,30.20,NNE,26,3.0,7.0,61,0.00,,BKN250,0.00,803.00,VWS V14.01,2013-06-05 14:35:00,
2013-06-05 10:38:00,66.8,52.9,30.20,NW,317,4.0,7.0,61,0.00,,BKN250,0.00,796.00,VWS V14.01,2013-06-05 14:38:00,
2013-06-05 10:40:00,66.7,52.4,30.20,NE,34,2.0,10.0,60,0.00,,BKN250,0.00,812.00,VWS V14.01,2013-06-05 14:40:00,
2013-06-05 10:43:00,66.7,52.8,30.20,NNE,15,3.0,10.0,61,0.00,,BKN250,0.00,816.00,VWS V14.01,2013-06-05 14:43:00,
2013-06-05 10:45:00,66.2,52.4,30.20,ESE,105,3.0,8.0,61,0.00,,BKN250,0.00,710.00,VWS V14.01,2013-06-05 14:45:00,
2013-06-05 10:48:00,66.2,52.4,30.20,East,86,3.0,8.0,61,0.00,,BKN250,0.00,751.00,VWS V14.01,2013-06-05 14:48:00,
2013-06-05 10:50:00,66.3,52.9,30.19,East,84,5.0,6.0,62,0.00,,BKN250,0.00,714.00,VWS V14.01,2013-06-05 14:50:00,
2013-06-05 10:53:00,66.3,52.9,30.19,NE,46,3.0,6.0,62,0.00,,BKN250,0.00,657.00,VWS V14.01,2013-06-05 14:53:00,
2013-06-05 10:55:00,66.2,52.8,30.19,ENE,67,4.0,8.0,62,0.00,,BKN250,0.00,717.00,VWS V14.01,2013-06-05 14:55:00,
2013-06-05 10:58:00,66.3,52.9,30.19,ESE,118,1.0,8.0,62,0.00,,BKN250,0.00,689.00,VWS V14.01,2013-06-05 14:58:00,
2013-06-05 11:00:00,66.4,53.0,30.19,East,80,5.0,7.0,62,0.00,,BKN250,0.00,800.00,VWS V14.01,2013-06-05 15:00:00,
2013-06-05 11:03:00,66.4,53.4,30.19,East,81,6.0,7.0,63,0.00,,BKN250,0.00,800.00,VWS V14.01,2013-06-05 15:03:00,
2013-06-05 11:05:00,66.5,53.1,30.19,NNE,32,5.0,6.0,62,0.00,,BKN250,0.00,761.00,VWS V14.01,2013-06-05 15:05:00,
2013-06-05 11:08:00,66.5,53.1,30.19,ENE,57,3.0,6.0,62,0.00,,BKN250,0.00,828.00,VWS V14.01,2013-06-05 15:08:00,
2013-06-05 11:10:00,66.9,53.5,30.19,NE,38,4.0,5.0,62,0.00,,BKN250,0.00,842.00,VWS V14.01,2013-06-05 15:10:00,
2013-06-05 11:13:00,66.8,53.4,30.19,NE,55,0.0,5.0,62,0.00,,BKN250,0.00,853.00,VWS V14.01,2013-06-05 15:13:00,
2013-06-05 11:15:00,67.9,54.0,30.19,East,98,5.0,6.0,61,0.00,,BKN250,0.00,821.00,VWS V14.01,2013-06-05 15:15:00,
2013-06-05 11:18:00,67.8,53.9,30.19,NNE,26,4.0,6.0,61,0.00,,BKN250,0.00,821.00,VWS V14.01,2013-06-05 15:18:00,
2013-06-05 11:20:00,68.1,54.2,30.18,ENE,65,4.0,8.0,61,0.00,,BKN250,0.00,791.00,VWS V14.01,2013-06-05 15:20:00,
2013-06-05 11:23:00,68.1,53.7,30.18,ESE,112,4.0,8.0,60,0.00,,BKN250,0.00,796.00,VWS V14.01,2013-06-05 15:23:00,
2013-06-05 11:25:00,67.4,53.5,30.18,ENE,74,5.0,9.0,61,0.00,,BKN250,0.00,823.00,VWS V14.01,2013-06-05 15:25:00,
2013-06-05 11:28:00,67.5,53.6,30.18,East,94,7.0,9.0,61,0.00,,BKN250,0.00,823.00,VWS V14.01,2013-06-05 15:28:00,
2013-06-05 11:30:00,66.5,53.1,30.18,NE,44,8.0,10.0,62,0.00,,BKN250,0.00,891.00,VWS V14.01,2013-06-05 15:30:00,
2013-06-05 11:33:00,66.6,53.2,30.18,East,80,8.0,10.0,62,0.00,,BKN250,0.00,889.00,VWS V14.01,2013-06-05 15:33:00,
2013-06-05 11:35:00,66.3,53.3,30.18,ENE,75,1.0,10.0,63,0.00,,BKN250,0.00,888.00,VWS V14.01,2013-06-05 15:35:00,
2013-06-05 11:38:00,66.2,53.7,30.18,ENE,61,7.0,10.0,64,0.00,,BKN250,0.00,891.00,VWS V14.01,2013-06-05 15:38:00,
2013-06-05 11:40:00,66.7,53.3,30.18,East,95,5.0,11.0,62,0.00,,BKN250,0.00,772.00,VWS V14.01,2013-06-05 15:40:00,
2013-06-05 11:43:00,66.7,52.8,30.18,ESE,107,3.0,11.0,61,0.00,,BKN250,0.00,772.00,VWS V14.01,2013-06-05 15:43:00,
2013-06-05 11:45:00,66.7,53.3,30.18,East,89,8.0,11.0,62,0.00,,BKN250,0.00,896.00,VWS V14.01,2013-06-05 15:45:00,
2013-06-05 11:48:00,66.6,53.2,30.18,East,82,7.0,11.0,62,0.00,,BKN250,0.00,810.00,VWS V14.01,2013-06-05 15:48:00,
2013-06-05 11:50:00,66.8,52.9,30.18,ESE,108,5.0,9.0,61,0.00,,BKN250,0.00,830.00,VWS V14.01,2013-06-05 15:50:00,
2013-06-05 11:53:00,66.8,52.9,30.18,East,80,9.0,9.0,61,0.00,,BKN250,0.00,860.00,VWS V14.01,2013-06-05 15:53:00,
2013-06-05 11:55:00,66.8,53.4,30.17,East,99,1.0,9.0,62,0.00,,BKN250,0.00,879.00,VWS V14.01,2013-06-05 15:55:00,
2013-06-05 11:58:00,66.8,52.9,30.17,East,97,5.0,9.0,61,0.00,,BKN250,0.00,891.00,VWS V14.01,2013-06-05 15:58:00,
2013-06-05 12:00:00,67.5,53.6,30.17,SE,127,2.0,8.0,61,0.00,,BKN250,0.00,891.00,VWS V14.01,2013-06-05 16:00:00,
2013-06-05 12:03:00,67.3,53.8,30.17,ESE,117,5.0,8.0,62,0.00,,BKN250,0.00,838.00,VWS V14.01,2013-06-05 16:03:00,
2013-06-05 12:05:00,68.3,53.9,30.17,ENE,71,2.0,8.0,60,0.00,,BKN250,0.00,870.00,VWS V14.01,2013-06-05 16:05:00,
2013-06-05 12:08:00,68.2,54.7,30.17,NE,46,5.0,8.0,62,0.00,,BKN250,0.00,877.00,VWS V14.01,2013-06-05 16:08:00,
2013-06-05 12:10:00,68.5,53.6,30.17,East,79,5.0,8.0,59,0.00,,BKN250,0.00,812.00,VWS V14.01,2013-06-05 16:10:00,
2013-06-05 12:13:00,68.5,53.6,30.17,East,81,2.0,8.0,59,0.00,,BKN250,0.00,835.00,VWS V14.01,2013-06-05 16:13:00,
2013-06-05 12:15:00,68.1,52.8,30.17,ENE,63,8.0,10.0,58,0.00,,BKN250,0.00,896.00,VWS V14.01,2013-06-05 16:15:00,
2013-06-05 12:18:00,68.1,52.8,30.17,ENE,65,5.0,10.0,58,0.00,,BKN250,0.00,877.00,VWS V14.01,2013-06-05 16:18:00,
2013-06-05 12:20:00,67.7,52.4,30.17,East,98,5.0,9.0,58,0.00,,BKN250,0.00,888.00,VWS V14.01,2013-06-05 16:20:00,
2013-06-05 12:23:00,67.7,52.4,30.17,ENE,67,3.0,9.0,58,0.00,,BKN250,0.00,853.00,VWS V14.01,2013-06-05 16:23:00,
2013-06-05 12:25:00,68.2,53.8,30.17,ESE,111,5.0,8.0,60,0.00,,BKN250,0.00,879.00,VWS V14.01,2013-06-05 16:25:00,
2013-06-05 12:28:00,68.0,52.7,30.17,SE,146,5.0,8.0,58,0.00,,BKN250,0.00,895.00,VWS V14.01,2013-06-05 16:28:00,
2013-06-05 12:30:00,68.7,52.4,30.17,ENE,62,3.0,10.0,56,0.00,,BKN250,0.00,928.00,VWS V14.01,2013-06-05 16:30:00,
2013-06-05 12:33:00,68.6,51.8,30.17,ENE,72,4.0,9.0,55,0.00,,BKN250,0.00,923.00,VWS V14.01,2013-06-05 16:33:00,
2013-06-05 12:35:00,68.7,52.9,30.16,NNE,15,4.0,9.0,57,0.00,,BKN250,0.00,923.00,VWS V14.01,2013-06-05 16:35:00,
2013-06-05 12:38:00,68.5,52.2,30.16,ENE,61,2.0,9.0,56,0.00,,BKN250,0.00,921.00,VWS V14.01,2013-06-05 16:38:00,
2013-06-05 12:40:00,69.2,52.4,30.16,NNE,32,6.0,8.0,55,0.00,,BKN250,0.00,925.00,VWS V14.01,2013-06-05 16:40:00,
2013-06-05 12:43:00,69.2,52.4,30.16,East,95,1.0,8.0,55,0.00,,BKN250,0.00,925.00,VWS V14.01,2013-06-05 16:43:00,
2013-06-05 12:45:00,69.8,53.9,30.16,ENE,65,3.0,7.0,57,0.00,,BKN250,0.00,889.00,VWS V14.01,2013-06-05 16:45:00,
2013-06-05 12:48:00,69.7,54.3,30.16,NE,44,4.0,7.0,58,0.00,,BKN250,0.00,889.00,VWS V14.01,2013-06-05 16:48:00,
2013-06-05 12:50:00,70.2,52.8,30.16,North,5,5.0,9.0,54,0.00,,BKN250,0.00,914.00,VWS V14.01,2013-06-05 16:50:00,
2013-06-05 12:53:00,70.2,52.3,30.16,NNE,33,3.0,9.0,53,0.00,,BKN250,0.00,902.00,VWS V14.01,2013-06-05 16:53:00,
2013-06-05 12:55:00,70.1,52.7,30.16,NNE,15,9.0,10.0,54,0.00,,BKN250,0.00,939.00,VWS V14.01,2013-06-05 16:55:00,
2013-06-05 12:58:00,70.1,52.7,30.16,NNE,12,8.0,10.0,54,0.00,,BKN250,0.00,935.00,VWS V14.01,2013-06-05 16:58:00,
2013-06-05 13:00:00,69.7,51.8,30.16,NNE,26,6.0,9.0,53,0.00,,BKN250,0.00,942.00,VWS V14.01,2013-06-05 17:00:00,
2013-06-05 13:03:00,69.7,52.3,30.16,North,11,7.0,9.0,54,0.00,,BKN250,0.00,942.00,VWS V14.01,2013-06-05 17:03:00,
2013-06-05 13:05:00,70.1,52.2,30.16,NNE,27,6.0,8.0,53,0.00,,BKN250,0.00,937.00,VWS V14.01,2013-06-05 17:05:00,
2013-06-05 13:08:00,69.9,52.5,30.16,ENE,67,3.0,8.0,54,0.00,,BKN250,0.00,937.00,VWS V14.01,2013-06-05 17:08:00,
2013-06-05 13:10:00,70.5,52.0,30.15,NE,40,2.0,8.0,52,0.00,,BKN250,0.00,937.00,VWS V14.01,2013-06-05 17:10:00,
2013-06-05 13:13:00,70.3,51.9,30.15,NE,39,3.0,8.0,52,0.00,,BKN250,0.00,935.00,VWS V14.01,2013-06-05 17:13:00,
2013-06-05 13:15:00,71.0,51.4,30.16,ENE,59,2.0,11.0,50,0.00,,BKN250,0.00,939.00,VWS V14.01,2013-06-05 17:15:00,
2013-06-05 13:18:00,71.0,52.0,30.16,NNE,13,6.0,11.0,51,0.00,,BKN250,0.00,944.00,VWS V14.01,2013-06-05 17:18:00,
2013-06-05 13:20:00,70.7,50.6,30.16,ENE,57,3.0,10.0,49,0.00,,BKN250,0.00,923.00,VWS V14.01,2013-06-05 17:20:00,
2013-06-05 13:23:00,70.8,50.7,30.16,NE,49,4.0,10.0,49,0.00,,BKN250,0.00,925.00,VWS V14.01,2013-06-05 17:23:00,
2013-06-05 13:25:00,70.1,50.6,30.15,ENE,66,7.0,9.0,50,0.00,,BKN250,0.00,932.00,VWS V14.01,2013-06-05 17:25:00,
2013-06-05 13:28:00,70.1,50.6,30.15,NE,45,4.0,9.0,50,0.00,,BKN250,0.00,933.00,VWS V14.01,2013-06-05 17:28:00,
2013-06-05 13:30:00,70.2,50.2,30.15,ENE,62,7.0,8.0,49,0.00,,BKN250,0.00,831.00,VWS V14.01,2013-06-05 17:30:00,
2013-06-05 13:33:00,70.2,50.2,30.15,North,5,2.0,8.0,49,0.00,,BKN250,0.00,905.00,VWS V14.01,2013-06-05 17:33:00,
2013-06-05 13:35:00,70.3,50.8,30.15,NNE,15,8.0,9.0,50,0.00,,BKN250,0.00,895.00,VWS V14.01,2013-06-05 17:35:00,
2013-06-05 13:38:00,70.2,50.7,30.15,NNE,15,7.0,9.0,50,0.00,,BKN250,0.00,916.00,VWS V14.01,2013-06-05 17:38:00,
2013-06-05 13:40:00,70.2,50.2,30.15,ENE,75,7.0,11.0,49,0.00,,BKN250,0.00,930.00,VWS V14.01,2013-06-05 17:40:00,
2013-06-05 13:43:00,70.3,49.7,30.15,NE,53,5.0,11.0,48,0.00,,BKN250,0.00,916.00,VWS V14.01,2013-06-05 17:43:00,
2013-06-05 13:45:00,69.6,49.6,30.15,NNE,19,4.0,10.0,49,0.00,,BKN250,0.00,907.00,VWS V14.01,2013-06-05 17:45:00,
2013-06-05 13:48:00,69.7,49.7,30.15,ENE,68,2.0,10.0,49,0.00,,BKN250,0.00,907.00,VWS V14.01,2013-06-05 17:48:00,
2013-06-05 13:50:00,69.5,49.0,30.15,ENE,69,10.0,11.0,48,0.00,,BKN250,0.00,881.00,VWS V14.01,2013-06-05 17:50:00,
2013-06-05 13:53:00,69.6,49.1,30.15,East,85,8.0,11.0,48,0.00,,BKN250,0.00,889.00,VWS V14.01,2013-06-05 17:53:00,
2013-06-05 13:55:00,69.5,49.0,30.15,NE,38,4.0,10.0,48,0.00,,BKN250,0.00,884.00,VWS V14.01,2013-06-05 17:55:00,
2013-06-05 13:58:00,69.4,48.9,30.15,NE,36,2.0,10.0,48,0.00,,BKN250,0.00,884.00,VWS V14.01,2013-06-05 17:58:00,
2013-06-05 14:00:00,69.9,49.3,30.15,East,82,3.0,8.0,48,0.00,,BKN250,0.00,870.00,VWS V14.01,2013-06-05 18:00:00,
2013-06-05 14:03:00,69.7,48.6,30.15,NE,51,2.0,8.0,47,0.00,,BKN250,0.00,872.00,VWS V14.01,2013-06-05 18:03:00,
2013-06-05 14:05:00,70.6,50.0,30.15,ENE,68,4.0,8.0,48,0.00,,BKN250,0.00,893.00,VWS V14.01,2013-06-05 18:05:00,
2013-06-05 14:08:00,70.5,49.3,30.15,ENE,77,4.0,7.0,47,0.00,,BKN250,0.00,895.00,VWS V14.01,2013-06-05 18:08:00,
2013-06-05 14:10:00,70.6,49.4,30.15,NE,39,5.0,10.0,47,0.00,,BKN250,0.00,881.00,VWS V14.01,2013-06-05 18:10:00,
2013-06-05 14:13:00,70.5,48.8,30.15,ENE,70,1.0,10.0,46,0.00,,BKN250,0.00,882.00,VWS V14.01,2013-06-05 18:13:00,
2013-06-05 14:15:00,70.6,49.4,30.15,NNE,17,6.0,10.0,47,0.00,,BKN250,0.00,874.00,VWS V14.01,2013-06-05 18:15:00,
2013-06-05 14:18:00,70.6,50.0,30.15,NE,41,5.0,10.0,48,0.00,,BKN250,0.00,875.00,VWS V14.01,2013-06-05 18:18:00,
2013-06-05 14:20:00,70.4,49.2,30.15,East,87,2.0,10.0,47,0.00,,BKN250,0.00,870.00,VWS V14.01,2013-06-05 18:20:00,
2013-06-05 14:23:00,70.5,48.8,30.15,NNE,24,7.0,10.0,46,0.00,,BKN250,0.00,867.00,VWS V14.01,2013-06-05 18:23:00,
2013-06-05 14:25:00,70.3,49.1,30.15,NE,46,3.0,10.0,47,0.00,,BKN250,0.00,861.00,VWS V14.01,2013-06-05 18:25:00,
2013-06-05 14:28:00,70.3,49.7,30.15,NE,42,8.0,10.0,48,0.00,,BKN250,0.00,861.00,VWS V14.01,2013-06-05 18:28:00,
2013-06-05 14:30:00,70.4,49.2,30.15,ENE,78,5.0,9.0,47,0.00,,BKN250,0.00,860.00,VWS V14.01,2013-06-05 18:30:00,
2013-06-05 14:33:00,70.3,49.7,30.15,NNE,17,3.0,9.0,48,0.00,,BKN250,0.00,863.00,VWS V14.01,2013-06-05 18:33:00,
2013-06-05 14:35:00,70.2,49.0,30.15,ENE,59,7.0,11.0,47,0.00,,BKN250,0.00,863.00,VWS V14.01,2013-06-05 18:35:00,
2013-06-05 14:38:00,70.1,49.0,30.15,ENE,57,0.0,11.0,47,0.00,,BKN250,0.00,863.00,VWS V14.01,2013-06-05 18:38:00,
2013-06-05 14:40:00,71.0,49.8,30.14,East,81,7.0,7.0,47,0.00,,BKN250,0.00,861.00,VWS V14.01,2013-06-05 18:40:00,
2013-06-05 14:43:00,70.9,50.2,30.14,ESE,113,5.0,7.0,48,0.00,,BKN250,0.00,861.00,VWS V14.01,2013-06-05 18:43:00,
2013-06-05 14:45:00,70.9,50.2,30.13,East,86,2.0,9.0,48,0.00,,BKN250,0.00,882.00,VWS V14.01,2013-06-05 18:45:00,
2013-06-05 14:48:00,71.0,50.3,30.13,ESE,117,5.0,8.0,48,0.00,,BKN250,0.00,889.00,VWS V14.01,2013-06-05 18:48:00,
2013-06-05 14:50:00,70.5,51.5,30.13,East,100,3.0,9.0,51,0.00,,BKN250,0.00,858.00,VWS V14.01,2013-06-05 18:50:00,
2013-06-05 14:53:00,70.5,51.0,30.13,ENE,68,0.0,9.0,50,0.00,,BKN250,0.00,872.00,VWS V14.01,2013-06-05 18:53:00,
2013-06-05 14:55:00,70.5,50.4,30.13,ENE,77,3.0,8.0,49,0.00,,BKN250,0.00,826.00,VWS V14.01,2013-06-05 18:55:00,
2013-06-05 14:58:00,70.6,50.5,30.13,ENE,67,7.0,8.0,49,0.00,,BKN250,0.00,826.00,VWS V14.01,2013-06-05 18:58:00,
2013-06-05 15:00:00,70.6,50.5,30.13,ENE,61,3.0,7.0,49,0.00,,BKN250,0.00,812.00,VWS V14.01,2013-06-05 19:00:00,
2013-06-05 15:03:00,70.6,50.5,30.13,NE,55,6.0,7.0,49,0.00,,BKN250,0.00,814.00,VWS V14.01,2013-06-05 19:03:00,
2013-06-05 15:05:00,70.6,50.5,30.13,NNE,30,1.0,9.0,49,0.00,,BKN250,0.00,807.00,VWS V14.01,2013-06-05 19:05:00,
2013-06-05 15:08:00,70.5,49.9,30.13,NNE,28,2.0,9.0,48,0.00,,BKN250,0.00,809.00,VWS V14.01,2013-06-05 19:08:00,
2013-06-05 15:10:00,71.4,50.1,30.13,ENE,67,5.0,9.0,47,0.00,,BKN250,0.00,780.00,VWS V14.01,2013-06-05 19:10:00,
2013-06-05 15:13:00,71.4,51.3,30.13,SE,133,6.0,8.0,49,0.00,,BKN250,0.00,779.00,VWS V14.01,2013-06-05 19:13:00,
2013-06-05 15:15:00,70.9,49.7,30.12,East,83,1.0,8.0,47,0.00,,BKN250,0.00,782.00,VWS V14.01,2013-06-05 19:15:00,
2013-06-05 15:18:00,70.9,50.2,30.12,East,83,3.0,8.0,48,0.00,,BKN250,0.00,782.00,VWS V14.01,2013-06-05 19:18:00,
2013-06-05 15:20:00,71.3,50.0,30.12,ENE,58,3.0,8.0,47,0.00,,BKN250,0.00,758.00,VWS V14.01,2013-06-05 19:20:00,
2013-06-05 15:23:00,71.3,51.2,30.12,East,86,5.0,8.0,49,0.00,,BKN250,0.00,756.00,VWS V14.01,2013-06-05 19:23:00,
2013-06-05 15:25:00,72.2,50.9,30.12,SE,142,0.0,8.0,47,0.00,,BKN250,0.00,772.00,VWS V14.01,2013-06-05 19:25:00,
2013-06-05 15:28:00,72.1,50.8,30.12,NE,45,0.0,8.0,47,0.00,,BKN250,0.00,770.00,VWS V14.01,2013-06-05 19:28:00,
2013-06-05 15:30:00,72.1,50.8,30.12,North,355,3.0,10.0,47,0.00,,BKN250,0.00,738.00,VWS V14.01,2013-06-05 19:30:00,
2013-06-05 15:33:00,72.2,50.3,30.12,North,355,4.0,10.0,46,0.00,,BKN250,0.00,765.00,VWS V14.01,2013-06-05 19:33:00,
2013-06-05 15:35:00,72.3,51.0,30.12,North,5,7.0,7.0,47,0.00,,BKN250,0.00,728.00,VWS V14.01,2013-06-05 19:35:00,
2013-06-05 15:38:00,72.2,51.4,30.12,ENE,62,2.0,3.0,48,0.00,,BKN250,0.00,724.00,VWS V14.01,2013-06-05 19:38:00,
2013-06-05 15:40:00,71.8,51.1,30.12,East,89,3.0,13.0,48,0.00,,BKN250,0.00,742.00,VWS V14.01,2013-06-05 19:40:00,
2013-06-05 15:43:00,72.0,50.7,30.12,NE,49,7.0,13.0,47,0.00,,BKN250,0.00,740.00,VWS V14.01,2013-06-05 19:43:00,
2013-06-05 15:45:00,71.8,52.2,30.12,East,84,5.0,7.0,50,0.00,,BKN250,0.00,726.00,VWS V14.01,2013-06-05 19:45:00,
2013-06-05 15:48:00,71.8,51.6,30.12,East,88,7.0,7.0,49,0.00,,BKN250,0.00,707.00,VWS V14.01,2013-06-05 19:48:00,
2013-06-05 15:50:00,72.0,51.3,30.12,ESE,107,7.0,7.0,48,0.00,,BKN250,0.00,621.00,VWS V14.01,2013-06-05 19:50:00,
2013-06-05 15:53:00,71.9,50.6,30.12,ENE,61,3.0,6.0,47,0.00,,BKN250,0.00,615.00,VWS V14.01,2013-06-05 19:53:00,
2013-06-05 15:55:00,72.1,51.9,30.12,West,276,4.0,7.0,49,0.00,,BKN250,0.00,689.00,VWS V14.01,2013-06-05 19:55:00,
2013-06-05 15:58:00,72.0,51.3,30.12,ENE,74,1.0,7.0,48,0.00,,BKN250,0.00,693.00,VWS V14.01,2013-06-05 19:58:00,
2013-06-05 16:00:00,72.1,50.8,30.12,East,92,6.0,10.0,47,0.00,,BKN250,0.00,640.00,VWS V14.01,2013-06-05 20:00:00,
2013-06-05 16:03:00,72.2,50.9,30.12,ENE,57,7.0,10.0,47,0.00,,BKN250,0.00,698.00,VWS V14.01,2013-06-05 20:03:00,
2013-06-05 16:05:00,71.7,49.8,30.12,ESE,122,3.0,9.0,46,0.00,,BKN250,0.00,668.00,VWS V14.01,2013-06-05 20:05:00,
2013-06-05 16:08:00,71.8,50.5,30.12,East,98,5.0,9.0,47,0.00,,BKN250,0.00,673.00,VWS V14.01,2013-06-05 20:08:00,
2013-06-05 16:10:00,72.1,50.2,30.12,SSE,157,0.0,5.0,46,0.00,,BKN250,0.00,640.00,VWS V14.01,2013-06-05 20:10:00,
2013-06-05 16:13:00,72.0,50.1,30.12,SSE,158,1.0,5.0,46,0.00,,BKN250,0.00,649.00,VWS V14.01,2013-06-05 20:13:00,
2013-06-05 16:15:00,72.8,50.2,30.12,SSW,195,2.0,4.0,45,0.00,,BKN250,0.00,626.00,VWS V14.01,2013-06-05 20:15:00,
2013-06-05 16:18:00,72.6,50.1,30.12,SE,135,1.0,4.0,45,0.00,,BKN250,0.00,628.00,VWS V14.01,2013-06-05 20:18:00,
2013-06-05 16:20:00,73.3,49.5,30.12,SSW,211,2.0,5.0,43,0.00,,BKN250,0.00,598.00,VWS V14.01,2013-06-05 20:20:00,
2013-06-05 16:23:00,73.2,49.4,30.12,South,177,1.0,5.0,43,0.00,,BKN250,0.00,613.00,VWS V14.01,2013-06-05 20:23:00,
2013-06-05 16:25:00,73.8,49.9,30.12,WSW,258,1.0,9.0,43,0.00,,BKN250,0.00,608.00,VWS V14.01,2013-06-05 20:25:00,
2013-06-05 16:28:00,73.8,49.3,30.12,WSW,240,7.0,9.0,42,0.00,,BKN250,0.00,636.00,VWS V14.01,2013-06-05 20:28:00,
2013-06-05 16:30:00,73.5,48.4,30.12,SSW,206,4.0,9.0,41,0.00,,BKN250,0.00,608.00,VWS V14.01,2013-06-05 20:30:00,
2013-06-05 16:33:00,73.7,48.6,30.12,SSW,195,1.0,9.0,41,0.00,,BKN250,0.00,608.00,VWS V14.01,2013-06-05 20:33:00,
2013-06-05 16:35:00,73.1,48.0,30.12,East,96,1.0,7.0,41,0.00,,BKN250,0.00,585.00,VWS V14.01,2013-06-05 20:35:00,
2013-06-05 16:38:00,73.2,48.1,30.12,West,268,3.0,6.0,41,0.00,,SCT250,0.00,594.00,VWS V14.01,2013-06-05 20:38:00,
2013-06-05 16:40:00,73.0,47.9,30.12,South,178,3.0,6.0,41,0.00,,BKN250,0.00,566.00,VWS V14.01,2013-06-05 20:40:00,
2013-06-05 16:43:00,73.1,48.0,30.12,ESE,110,4.0,6.0,41,0.00,,SCT250,0.00,561.00,VWS V14.01,2013-06-05 20:43:00,
2013-06-05 16:45:00,72.5,48.1,30.13,ESE,119,1.0,8.0,42,0.00,,BKN250,0.00,570.00,VWS V14.01,2013-06-05 20:45:00,
2013-06-05 16:48:00,72.5,48.1,30.13,ESE,115,0.0,8.0,42,0.00,,SCT250,0.00,559.00,VWS V14.01,2013-06-05 20:48:00,
2013-06-05 16:50:00,72.6,48.8,30.13,SSE,158,3.0,5.0,43,0.00,,BKN250,0.00,543.00,VWS V14.01,2013-06-05 20:50:00,
2013-06-05 16:53:00,72.5,48.1,30.13,SSW,194,5.0,5.0,42,0.00,,SCT250,0.00,563.00,VWS V14.01,2013-06-05 20:53:00,
2013-06-05 16:58:00,72.6,48.8,30.13,South,180,5.0,8.0,43,0.00,,SCT250,0.00,522.00,VWS V14.01,2013-06-05 20:58:00,
2013-06-05 17:00:00,72.7,47.7,30.13,West,261,3.0,6.0,41,0.00,,BKN250,0.00,531.00,VWS V14.01,2013-06-05 21:00:00,
2013-06-05 17:03:00,72.6,46.9,30.13,SE,126,3.0,6.0,40,0.00,,SCT250,0.00,531.00,VWS V14.01,2013-06-05 21:03:00,
2013-06-05 17:05:00,72.9,47.8,30.13,East,94,2.0,6.0,41,0.00,,BKN250,0.00,517.00,VWS V14.01,2013-06-05 21:05:00,
2013-06-05 17:08:00,72.9,48.5,30.13,SSW,194,2.0,6.0,42,0.00,,SCT250,0.00,517.00,VWS V14.01,2013-06-05 21:08:00,
2013-06-05 17:10:00,72.6,46.9,30.13,SSW,195,1.0,9.0,40,0.00,,BKN250,0.00,497.00,VWS V14.01,2013-06-05 21:10:00,
2013-06-05 17:13:00,72.7,47.0,30.13,SSW,194,3.0,9.0,40,0.00,,SCT250,0.00,492.00,VWS V14.01,2013-06-05 21:13:00,
2013-06-05 17:15:00,72.3,46.7,30.13,WNW,300,2.0,10.0,40,0.00,,BKN250,0.00,448.00,VWS V14.01,2013-06-05 21:15:00,
2013-06-05 17:18:00,72.4,46.7,30.13,West,279,2.0,10.0,40,0.00,,SCT250,0.00,468.00,VWS V14.01,2013-06-05 21:18:00,
2013-06-05 17:20:00,72.2,46.6,30.13,West,259,3.0,7.0,40,0.00,,BKN250,0.00,457.00,VWS V14.01,2013-06-05 21:20:00,
2013-06-05 17:23:00,72.3,46.7,30.13,SE,136,1.0,7.0,40,0.00,,SCT250,0.00,454.00,VWS V14.01,2013-06-05 21:23:00,
2013-06-05 17:25:00,72.1,47.1,30.13,ESE,102,5.0,7.0,41,0.00,,BKN250,0.00,446.00,VWS V14.01,2013-06-05 21:25:00,
2013-06-05 17:28:00,72.1,47.1,30.13,South,171,3.0,7.0,41,0.00,,SCT250,0.00,446.00,VWS V14.01,2013-06-05 21:28:00,
2013-06-05 17:30:00,71.8,47.5,30.13,ESE,122,1.0,7.0,42,0.00,,BKN250,0.00,425.00,VWS V14.01,2013-06-05 21:30:00,
2013-06-05 17:33:00,71.8,47.5,30.13,ESE,111,3.0,7.0,42,0.00,,SCT250,0.00,417.00,VWS V14.01,2013-06-05 21:33:00,
2013-06-05 17:38:00,71.8,47.5,30.13,SSW,202,2.0,5.0,42,0.00,,BKN250,0.00,422.00,VWS V14.01,2013-06-05 21:38:00,
2013-06-05 17:40:00,71.9,47.0,30.12,South,186,3.0,9.0,41,0.00,,BKN250,0.00,394.00,VWS V14.01,2013-06-05 21:40:00,
2013-06-05 17:43:00,71.8,46.9,30.12,South,182,1.0,9.0,41,0.00,,BKN250,0.00,385.00,VWS V14.01,2013-06-05 21:43:00,
2013-06-05 17:45:00,72.0,47.7,30.12,South,189,0.0,4.0,42,0.00,,BKN250,0.00,374.00,VWS V14.01,2013-06-05 21:45:00,
2013-06-05 17:48:00,72.0,47.0,30.12,South,189,0.0,4.0,41,0.00,,BKN250,0.00,376.00,VWS V14.01,2013-06-05 21:48:00,
2013-06-05 17:50:00,72.4,49.3,30.12,South,183,0.0,6.0,44,0.00,,BKN250,0.00,364.00,VWS V14.01,2013-06-05 21:50:00,
2013-06-05 17:53:00,72.3,48.6,30.12,South,178,2.0,6.0,43,0.00,,BKN250,0.00,376.00,VWS V14.01,2013-06-05 21:53:00,
2013-06-05 17:55:00,72.3,48.0,30.12,South,189,1.0,5.0,42,0.00,,BKN250,0.00,353.00,VWS V14.01,2013-06-05 21:55:00,
2013-06-05 17:58:00,72.3,47.3,30.12,South,190,1.0,5.0,41,0.00,,BKN250,0.00,355.00,VWS V14.01,2013-06-05 21:58:00,
2013-06-05 18:00:00,71.9,46.3,30.12,SE,137,4.0,7.0,40,0.00,,BKN250,0.00,341.00,VWS V14.01,2013-06-05 22:00:00,
2013-06-05 18:03:00,72.0,47.0,30.12,South,174,4.0,7.0,41,0.00,,BKN250,0.00,341.00,VWS V14.01,2013-06-05 22:03:00,
2013-06-05 18:05:00,71.5,46.6,30.12,South,191,1.0,7.0,41,0.00,,BKN250,0.00,316.00,VWS V14.01,2013-06-05 22:05:00,
2013-06-05 18:08:00,71.5,46.6,30.12,SW,221,1.0,7.0,41,0.00,,BKN250,0.00,316.00,VWS V14.01,2013-06-05 22:08:00,
2013-06-05 18:10:00,71.2,46.3,30.12,South,173,0.0,6.0,41,0.00,,BKN250,0.00,313.00,VWS V14.01,2013-06-05 22:10:00,
2013-06-05 18:13:00,71.3,47.0,30.12,South,171,2.0,6.0,42,0.00,,BKN250,0.00,308.00,VWS V14.01,2013-06-05 22:13:00,
2013-06-05 18:15:00,70.9,47.3,30.12,WNW,298,1.0,8.0,43,0.00,,BKN250,0.00,297.00,VWS V14.01,2013-06-05 22:15:00,
2013-06-05 18:18:00,70.9,46.7,30.12,SW,227,3.0,8.0,42,0.00,,BKN250,0.00,297.00,VWS V14.01,2013-06-05 22:18:00,
2013-06-05 18:20:00,70.7,47.1,30.12,SSE,148,5.0,8.0,43,0.00,,BKN250,0.00,294.00,VWS V14.01,2013-06-05 22:20:00,
2013-06-05 18:23:00,70.8,47.2,30.12,SSE,161,0.0,7.0,43,0.00,,BKN250,0.00,288.00,VWS V14.01,2013-06-05 22:23:00,
2013-06-05 18:25:00,70.6,47.0,30.13,SE,146,3.0,7.0,43,0.00,,BKN250,0.00,276.00,VWS V14.01,2013-06-05 22:25:00,
2013-06-05 18:28:00,70.6,47.0,30.13,South,177,1.0,7.0,43,0.00,,BKN250,0.00,279.00,VWS V14.01,2013-06-05 22:28:00,
2013-06-05 18:30:00,70.4,46.2,30.13,South,190,4.0,8.0,42,0.00,,BKN250,0.00,255.00,VWS V14.01,2013-06-05 22:30:00,
2013-06-05 18:33:00,70.4,46.2,30.13,SSE,158,6.0,8.0,42,0.00,,BKN250,0.00,257.00,VWS V14.01,2013-06-05 22:33:00,
2013-06-05 18:35:00,70.2,46.1,30.13,SW,227,3.0,8.0,42,0.00,,BKN250,0.00,234.00,VWS V14.01,2013-06-05 22:35:00,
2013-06-05 18:38:00,70.2,46.1,30.13,SW,223,3.0,8.0,42,0.00,,BKN250,0.00,236.00,VWS V14.01,2013-06-05 22:38:00,
2013-06-05 18:43:00,69.9,45.8,30.13,SW,221,3.0,8.0,42,0.00,,BKN250,0.00,221.00,VWS V14.01,2013-06-05 22:43:00,
2013-06-05 18:45:00,69.7,46.2,30.13,SW,227,1.0,8.0,43,0.00,,BKN250,0.00,193.00,VWS V14.01,2013-06-05 22:45:00,
2013-06-05 18:48:00,69.7,46.2,30.13,SW,215,3.0,8.0,43,0.00,,BKN250,0.00,199.00,VWS V14.01,2013-06-05 22:48:00,
2013-06-05 18:50:00,69.6,46.8,30.13,SW,232,1.0,6.0,44,0.00,,BKN250,0.00,179.00,VWS V14.01,2013-06-05 22:50:00,
2013-06-05 18:53:00,69.6,46.1,30.13,SW,232,0.0,6.0,43,0.00,,BKN250,0.00,185.00,VWS V14.01,2013-06-05 22:53:00,
2013-06-05 18:55:00,69.6,46.8,30.13,SW,233,1.0,4.0,44,0.00,,BKN250,0.00,172.00,VWS V14.01,2013-06-05 22:55:00,
2013-06-05 18:58:00,69.6,47.3,30.13,SW,232,1.0,4.0,45,0.00,,BKN250,0.00,172.00,VWS V14.01,2013-06-05 22:58:00,
2013-06-05 19:00:00,69.5,47.2,30.12,South,169,4.0,5.0,45,0.00,,BKN250,0.00,151.00,VWS V14.01,2013-06-05 23:00:00,
2013-06-05 19:02:00,69.5,47.2,30.12,South,182,5.0,5.0,45,0.00,,BKN250,0.00,155.00,VWS V14.01,2013-06-05 23:02:00,
2013-06-05 19:05:00,69.2,46.4,30.12,SSW,202,1.0,4.0,44,0.00,,BKN250,0.00,137.00,VWS V14.01,2013-06-05 23:05:00,
2013-06-05 19:07:00,69.2,46.4,30.12,SSW,202,2.0,4.0,44,0.00,,BKN250,0.00,139.00,VWS V14.01,2013-06-05 23:07:00,
2013-06-05 19:10:00,69.2,47.0,30.12,West,273,1.0,4.0,45,0.00,,BKN250,0.00,125.00,VWS V14.01,2013-06-05 23:10:00,
2013-06-05 19:13:00,69.2,47.6,30.12,South,176,0.0,4.0,46,0.00,,BKN250,0.00,127.00,VWS V14.01,2013-06-05 23:13:00,
2013-06-05 19:15:00,69.2,47.6,30.12,WSW,238,0.0,2.0,46,0.00,,BKN250,0.00,111.00,VWS V14.01,2013-06-05 23:15:00,
2013-06-05 19:18:00,69.2,47.6,30.12,WSW,238,1.0,1.0,46,0.00,,BKN250,0.00,111.00,VWS V14.01,2013-06-05 23:18:00,
2013-06-05 19:20:00,69.0,47.4,30.12,WSW,239,0.0,4.0,46,0.00,,BKN250,0.00,91.00,VWS V14.01,2013-06-05 23:20:00,
2013-06-05 19:23:00,69.1,47.5,30.12,WSW,239,0.0,4.0,46,0.00,,BKN250,0.00,93.00,VWS V14.01,2013-06-05 23:23:00,
2013-06-05 19:25:00,68.9,47.3,30.12,WSW,238,1.0,3.0,46,0.00,,BKN250,0.00,79.00,VWS V14.01,2013-06-05 23:25:00,
2013-06-05 19:28:00,68.9,47.3,30.12,WSW,240,2.0,3.0,46,0.00,,BKN250,0.00,84.00,VWS V14.01,2013-06-05 23:28:00,
2013-06-05 19:30:00,68.7,47.7,30.12,SSW,200,1.0,3.0,47,0.00,,BKN250,0.00,63.00,VWS V14.01,2013-06-05 23:30:00,
2013-06-05 19:33:00,68.8,47.8,30.12,WSW,238,2.0,3.0,47,0.00,,BKN250,0.00,69.00,VWS V14.01,2013-06-05 23:33:00,
2013-06-05 19:35:00,68.5,48.1,30.12,SSW,205,0.0,3.0,48,0.00,,BKN250,0.00,53.00,VWS V14.01,2013-06-05 23:35:00,
2013-06-05 19:38:00,68.6,47.6,30.12,SSW,205,0.0,3.0,47,0.00,,BKN250,0.00,54.00,VWS V14.01,2013-06-05 23:38:00,
2013-06-05 19:40:00,68.2,47.2,30.12,SW,231,2.0,3.0,47,0.00,,BKN250,0.00,33.00,VWS V14.01,2013-06-05 23:40:00,
2013-06-05 19:43:00,68.3,47.9,30.12,SSW,209,2.0,2.0,48,0.00,,BKN250,0.00,40.00,VWS V14.01,2013-06-05 23:43:00,
2013-06-05 19:45:00,67.9,48.1,30.12,South,188,3.0,3.0,49,0.00,,BKN250,0.00,25.00,VWS V14.01,2013-06-05 23:45:00,
2013-06-05 19:48:00,67.9,47.5,30.12,SW,232,0.0,3.0,48,0.00,,BKN250,0.00,25.00,VWS V14.01,2013-06-05 23:48:00,
2013-06-05 19:50:00,67.4,47.6,30.12,SW,219,2.0,3.0,49,0.00,,BKN250,0.00,21.00,VWS V14.01,2013-06-05 23:50:00,
2013-06-05 19:53:00,67.5,47.7,30.12,SSW,209,2.0,3.0,49,0.00,,BKN250,0.00,21.00,VWS V14.01,2013-06-05 23:53:00,
2013-06-05 19:55:00,66.9,47.7,30.12,SW,222,1.0,4.0,50,0.00,,BKN250,0.00,19.00,VWS V14.01,2013-06-05 23:55:00,
2013-06-05 19:58:00,67.0,47.8,30.12,SW,218,1.0,3.0,50,0.00,,BKN250,0.00,19.00,VWS V14.01,2013-06-05 23:58:00,
2013-06-05 20:00:00,66.6,47.9,30.12,SW,222,0.0,2.0,51,0.00,,BKN250,0.00,14.00,VWS V14.01,2013-06-06 00:00:00,
2013-06-05 20:03:00,66.7,48.0,30.12,SW,222,0.0,2.0,51,0.00,,BKN250,0.00,16.00,VWS V14.01,2013-06-06 00:03:00,
2013-06-05 20:05:00,66.2,47.6,30.12,WSW,245,2.0,3.0,51,0.00,,BKN250,0.00,12.00,VWS V14.01,2013-06-06 00:05:00,
2013-06-05 20:07:00,66.3,48.2,30.12,WSW,247,2.0,3.0,52,0.00,,BKN250,0.00,12.00,VWS V14.01,2013-06-06 00:07:00,
2013-06-05 20:12:00,65.8,47.7,30.12,WSW,245,0.0,2.0,52,0.00,,BKN250,0.00,9.00,VWS V14.01,2013-06-06 00:12:00,
2013-06-05 20:15:00,65.5,47.9,30.12,WSW,245,0.0,1.0,53,0.00,,BKN250,0.00,5.00,VWS V14.01,2013-06-06 00:15:00,
2013-06-05 20:17:00,65.6,48.0,30.12,WSW,245,0.0,1.0,53,0.00,,BKN250,0.00,7.00,VWS V14.01,2013-06-06 00:17:00,
2013-06-05 20:20:00,65.1,48.1,30.12,WSW,245,0.0,0.0,54,0.00,,BKN250,0.00,0.00,VWS V14.01,2013-06-06 00:20:00,
2013-06-05 20:22:00,65.2,48.2,30.12,WSW,245,0.0,0.0,54,0.00,,BKN250,0.00,0.00,VWS V14.01,2013-06-06 00:22:00,
2013-06-05 20:25:00,64.7,48.2,30.12,WSW,245,0.0,0.0,55,0.00,,BKN250,0.00,0.00,VWS V14.01,2013-06-06 00:25:00,
2013-06-05 20:27:00,64.8,48.3,30.12,WSW,245,0.0,0.0,55,0.00,,BKN250,0.00,0.00,VWS V14.01,2013-06-06 00:27:00,
2013-06-05 20:30:00,64.4,48.4,30.13,WSW,245,0.0,0.0,56,0.00,,BKN250,0.00,0.00,VWS V14.01,2013-06-06 00:30:00,
2013-06-05 20:32:00,64.4,48.4,30.12,WSW,245,0.0,0.0,56,0.00,,BKN250,0.00,0.00,VWS V14.01,2013-06-06 00:32:00,
2013-06-05 20:35:00,63.9,49.3,30.13,WSW,245,0.0,0.0,59,0.00,,BKN250,0.00,0.00,VWS V14.01,2013-06-06 00:35:00,
2013-06-05 20:37:00,64.4,48.4,30.13,WSW,245,0.0,0.0,56,0.00,,BKN250,0.00,0.00,VWS V14.01,2013-06-06 00:37:00,
2013-06-05 20:40:00,63.4,49.7,30.13,WSW,245,0.0,0.0,61,0.00,,BKN250,0.00,0.00,VWS V14.01,2013-06-06 00:40:00,
2013-06-05 20:42:00,63.5,49.4,30.13,WSW,245,0.0,0.0,60,0.00,,BKN250,0.00,0.00,VWS V14.01,2013-06-06 00:42:00,
2013-06-05 20:45:00,62.9,49.3,30.13,WSW,245,0.0,0.0,61,0.00,,BKN250,0.00,0.00,VWS V14.01,2013-06-06 00:45:00,
2013-06-05 20:47:00,63.1,49.5,30.13,WSW,245,0.0,0.0,61,0.00,,BKN250,0.00,0.00,VWS V14.01,2013-06-06 00:47:00,
2013-06-05 20:50:00,62.4,49.2,30.13,WSW,245,0.0,0.0,62,0.00,,BKN250,0.00,0.00,VWS V14.01,2013-06-06 00:50:00,
2013-06-05 20:52:00,62.5,49.3,30.13,WSW,245,0.0,0.0,62,0.00,,BKN250,0.00,0.00,VWS V14.01,2013-06-06 00:52:00,
2013-06-05 20:55:00,61.8,49.1,30.13,WSW,245,0.0,0.0,63,0.00,,BKN250,0.00,0.00,VWS V14.01,2013-06-06 00:55:00,
2013-06-05 20:57:00,61.9,49.2,30.13,WSW,245,0.0,0.0,63,0.00,,BKN250,0.00,0.00,VWS V14.01,2013-06-06 00:57:00,
2013-06-05 21:02:00,61.6,48.5,30.13,WSW,245,0.0,0.0,62,0.00,,BKN250,0.00,0.00,VWS V14.01,2013-06-06 01:02:00,
2013-06-05 21:05:00,61.2,48.5,30.13,WSW,245,0.0,0.0,63,0.00,,BKN250,0.00,0.00,VWS V14.01,2013-06-06 01:05:00,
2013-06-05 21:07:00,61.3,48.6,30.13,WSW,245,0.0,0.0,63,0.00,,BKN250,0.00,0.00,VWS V14.01,2013-06-06 01:07:00,
2013-06-05 21:10:00,60.9,48.7,30.13,WSW,245,0.0,0.0,64,0.00,,BKN250,0.00,0.00,VWS V14.01,2013-06-06 01:10:00,
2013-06-05 21:12:00,61.1,48.8,30.13,WSW,245,0.0,0.0,64,0.00,,BKN250,0.00,0.00,VWS V14.01,2013-06-06 01:12:00,
2013-06-05 21:15:00,60.5,49.1,30.13,WSW,245,0.0,0.0,66,0.00,,BKN250,0.00,0.00,VWS V14.01,2013-06-06 01:15:00,
2013-06-05 21:17:00,60.6,49.2,30.13,WSW,245,0.0,0.0,66,0.00,,BKN250,0.00,0.00,VWS V14.01,2013-06-06 01:17:00,
2013-06-05 21:20:00,60.0,49.4,30.13,WSW,245,0.0,0.0,68,0.00,,BKN250,0.00,0.00,VWS V14.01,2013-06-06 01:20:00,
2013-06-05 21:22:00,60.1,49.1,30.13,WSW,245,0.0,0.0,67,0.00,,BKN250,0.00,0.00,VWS V14.01,2013-06-06 01:22:00,
2013-06-05 21:25:00,59.6,48.6,30.14,WSW,245,0.0,0.0,67,0.00,,BKN250,0.00,0.00,VWS V14.01,2013-06-06 01:25:00,
2013-06-05 21:27:00,59.7,48.7,30.13,WSW,245,0.0,0.0,67,0.00,,BKN250,0.00,0.00,VWS V14.01,2013-06-06 01:27:00,
2013-06-05 21:30:00,59.3,48.8,30.14,WSW,245,0.0,0.0,68,0.00,,BKN250,0.00,0.00,VWS V14.01,2013-06-06 01:30:00,
2013-06-05 21:32:00,59.4,48.8,30.14,WSW,245,0.0,0.0,68,0.00,,BKN250,0.00,0.00,VWS V14.01,2013-06-06 01:32:00,
2013-06-05 21:35:00,59.0,48.9,30.14,WSW,245,0.0,0.0,69,0.00,,BKN250,0.00,0.00,VWS V14.01,2013-06-06 01:35:00,
2013-06-05 21:37:00,59.0,48.9,30.14,WSW,245,0.0,0.0,69,0.00,,BKN250,0.00,0.00,VWS V14.01,2013-06-06 01:37:00,
2013-06-05 21:40:00,58.7,49.0,30.14,WSW,245,0.0,0.0,70,0.00,,BKN250,0.00,0.00,VWS V14.01,2013-06-06 01:40:00,
2013-06-05 21:42:00,58.8,49.0,30.14,WSW,245,0.0,0.0,70,0.00,,BKN250,0.00,0.00,VWS V14.01,2013-06-06 01:42:00,
2013-06-05 21:45:00,58.4,49.0,30.14,WSW,245,0.0,0.0,71,0.00,,BKN250,0.00,0.00,VWS V14.01,2013-06-06 01:45:00,
2013-06-05 21:47:00,58.5,49.1,30.14,WSW,245,0.0,0.0,71,0.00,,BKN250,0.00,0.00,VWS V14.01,2013-06-06 01:47:00,
2013-06-05 21:50:00,58.2,49.2,30.14,WSW,245,0.0,0.0,72,0.00,,BKN250,0.00,0.00,VWS V14.01,2013-06-06 01:50:00,
2013-06-05 21:52:00,58.2,49.2,30.14,WSW,245,0.0,0.0,72,0.00,,BKN250,0.00,0.00,VWS V14.01,2013-06-06 01:52:00,
2013-06-05 21:55:00,58.0,49.4,30.14,WSW,245,0.0,0.0,73,0.00,,BKN250,0.00,0.00,VWS V14.01,2013-06-06 01:55:00,
2013-06-05 21:57:00,58.1,49.1,30.14,WSW,245,0.0,0.0,72,0.00,,BKN250,0.00,0.00,VWS V14.01,2013-06-06 01:57:00,
2013-06-05 22:00:00,57.8,49.6,30.14,WSW,245,0.0,0.0,74,0.00,,BKN250,0.00,0.00,VWS V14.01,2013-06-06 02:00:00,
2013-06-05 22:02:00,57.9,49.7,30.14,WSW,245,0.0,0.0,74,0.00,,BKN250,0.00,0.00,VWS V14.01,2013-06-06 02:02:00,
2013-06-05 22:05:00,57.7,49.5,30.14,WSW,245,0.0,0.0,74,0.00,,BKN250,0.00,0.00,VWS V14.01,2013-06-06 02:05:00,
2013-06-05 22:07:00,57.7,49.5,30.14,WSW,245,0.0,0.0,74,0.00,,BKN250,0.00,0.00,VWS V14.01,2013-06-06 02:07:00,
2013-06-05 22:10:00,57.2,49.4,30.14,WSW,245,0.0,0.0,75,0.00,,BKN250,0.00,0.00,VWS V14.01,2013-06-06 02:10:00,
2013-06-05 22:12:00,57.3,49.5,30.14,WSW,245,0.0,0.0,75,0.00,,BKN250,0.00,0.00,VWS V14.01,2013-06-06 02:12:00,
2013-06-05 22:15:00,57.0,49.2,30.14,WSW,245,0.0,0.0,75,0.00,,BKN250,0.00,0.00,VWS V14.01,2013-06-06 02:15:00,
2013-06-05 22:17:00,57.0,49.2,30.14,WSW,245,0.0,0.0,75,0.00,,BKN250,0.00,0.00,VWS V14.01,2013-06-06 02:17:00,
2013-06-05 22:20:00,57.0,49.2,30.14,WSW,245,0.0,0.0,75,0.00,,BKN250,0.00,0.00,VWS V14.01,2013-06-06 02:20:00,
2013-06-05 22:22:00,57.2,49.4,30.14,WSW,245,0.0,0.0,75,0.00,,BKN250,0.00,0.00,VWS V14.01,2013-06-06 02:22:00,
2013-06-05 22:25:00,56.7,48.9,30.14,WSW,245,0.0,0.0,75,0.00,,BKN250,0.00,0.00,VWS V14.01,2013-06-06 02:25:00,
2013-06-05 22:27:00,56.9,49.1,30.14,WSW,245,0.0,0.0,75,0.00,,BKN250,0.00,0.00,VWS V14.01,2013-06-06 02:27:00,
2013-06-05 22:30:00,56.3,48.5,30.14,WSW,245,0.0,0.0,75,0.00,,BKN250,0.00,0.00,VWS V14.01,2013-06-06 02:30:00,
2013-06-05 22:32:00,56.5,48.7,30.14,WSW,245,0.0,0.0,75,0.00,,BKN250,0.00,0.00,VWS V14.01,2013-06-06 02:32:00,
2013-06-05 22:35:00,56.5,48.7,30.13,WSW,245,0.0,0.0,75,0.00,,BKN250,0.00,0.00,VWS V14.01,2013-06-06 02:35:00,
2013-06-05 22:37:00,56.5,48.7,30.13,WSW,245,0.0,0.0,75,0.00,,SCT250,0.00,0.00,VWS V14.01,2013-06-06 02:37:00,
2013-06-05 22:40:00,56.2,48.4,30.13,WSW,245,0.0,0.0,75,0.00,,BKN250,0.00,0.00,VWS V14.01,2013-06-06 02:40:00,
2013-06-05 22:42:00,56.2,48.4,30.13,WSW,245,0.0,0.0,75,0.00,,SCT250,0.00,0.00,VWS V14.01,2013-06-06 02:42:00,
2013-06-05 22:45:00,56.3,48.5,30.13,WSW,245,0.0,0.0,75,0.00,,BKN250,0.00,0.00,VWS V14.01,2013-06-06 02:45:00,
2013-06-05 22:47:00,56.3,48.5,30.13,WSW,245,0.0,0.0,75,0.00,,SCT250,0.00,0.00,VWS V14.01,2013-06-06 02:47:00,
2013-06-05 22:50:00,56.5,48.7,30.14,WSW,245,0.0,0.0,75,0.00,,BKN250,0.00,0.00,VWS V14.01,2013-06-06 02:50:00,
2013-06-05 22:52:00,56.5,48.7,30.14,WSW,245,0.0,0.0,75,0.00,,SCT250,0.00,0.00,VWS V14.01,2013-06-06 02:52:00,
2013-06-05 22:55:00,56.3,48.5,30.14,WSW,245,0.0,0.0,75,0.00,,BKN250,0.00,0.00,VWS V14.01,2013-06-06 02:55:00,
2013-06-05 22:57:00,56.5,48.7,30.14,WSW,245,0.0,0.0,75,0.00,,SCT250,0.00,0.00,VWS V14.01,2013-06-06 02:57:00,
2013-06-05 23:00:00,56.0,48.2,30.14,WSW,245,0.0,0.0,75,0.00,,BKN250,0.00,0.00,VWS V14.01,2013-06-06 03:00:00,
2013-06-05 23:02:00,56.0,48.2,30.14,WSW,245,0.0,0.0,75,0.00,,SCT250,0.00,0.00,VWS V14.01,2013-06-06 03:02:00,
2013-06-05 23:05:00,56.6,48.8,30.14,WSW,245,0.0,0.0,75,0.00,,BKN250,0.00,0.00,VWS V14.01,2013-06-06 03:05:00,
2013-06-05 23:07:00,56.3,48.5,30.14,WSW,245,0.0,0.0,75,0.00,,SCT250,0.00,0.00,VWS V14.01,2013-06-06 03:07:00,
2013-06-05 23:10:00,56.3,48.5,30.15,WSW,245,0.0,0.0,75,0.00,,BKN250,0.00,0.00,VWS V14.01,2013-06-06 03:10:00,
2013-06-05 23:12:00,56.3,48.5,30.15,WSW,245,0.0,0.0,75,0.00,,SCT250,0.00,0.00,VWS V14.01,2013-06-06 03:12:00,
2013-06-05 23:15:00,56.0,48.2,30.15,WSW,245,0.0,0.0,75,0.00,,BKN250,0.00,0.00,VWS V14.01,2013-06-06 03:15:00,
2013-06-05 23:17:00,56.2,48.4,30.15,WSW,245,0.0,0.0,75,0.00,,SCT250,0.00,0.00,VWS V14.01,2013-06-06 03:17:00,
2013-06-05 23:20:00,56.0,48.2,30.14,WSW,245,0.0,0.0,75,0.00,,BKN250,0.00,0.00,VWS V14.01,2013-06-06 03:20:00,
2013-06-05 23:22:00,56.0,48.2,30.15,WSW,245,0.0,0.0,75,0.00,,SCT250,0.00,0.00,VWS V14.01,2013-06-06 03:22:00,
2013-06-05 23:25:00,55.9,48.1,30.13,WSW,245,0.0,0.0,75,0.00,,BKN250,0.00,0.00,VWS V14.01,2013-06-06 03:25:00,
2013-06-05 23:27:00,55.9,48.1,30.13,WSW,245,0.0,0.0,75,0.00,,SCT250,0.00,0.00,VWS V14.01,2013-06-06 03:27:00,
2013-06-05 23:30:00,56.0,48.2,30.13,WSW,245,0.0,0.0,75,0.00,,BKN250,0.00,0.00,VWS V14.01,2013-06-06 03:30:00,
2013-06-05 23:32:00,56.0,48.2,30.13,WSW,245,0.0,0.0,75,0.00,,SCT250,0.00,0.00,VWS V14.01,2013-06-06 03:32:00,
2013-06-05 23:35:00,56.2,48.4,30.13,WSW,245,0.0,0.0,75,0.00,,BKN250,0.00,0.00,VWS V14.01,2013-06-06 03:35:00,
2013-06-05 23:37:00,56.2,48.4,30.13,WSW,245,0.0,0.0,75,0.00,,FEW250,0.00,0.00,VWS V14.01,2013-06-06 03:37:00,
2013-06-05 23:40:00,55.6,47.8,30.13,WSW,245,0.0,0.0,75,0.00,,BKN250,0.00,0.00,VWS V14.01,2013-06-06 03:40:00,
2013-06-05 23:42:00,55.7,47.9,30.13,WSW,245,0.0,0.0,75,0.00,,FEW250,0.00,0.00,VWS V14.01,2013-06-06 03:42:00,
2013-06-05 23:45:00,55.7,47.9,30.13,WSW,245,0.0,0.0,75,0.00,,BKN250,0.00,0.00,VWS V14.01,2013-06-06 03:45:00,
2013-06-05 23:47:00,55.7,47.9,30.13,WSW,245,0.0,0.0,75,0.00,,FEW250,0.00,0.00,VWS V14.01,2013-06-06 03:47:00,
2013-06-05 23:50:00,55.6,47.8,30.14,WSW,245,0.0,0.0,75,0.00,,BKN250,0.00,0.00,VWS V14.01,2013-06-06 03:50:00,
2013-06-05 23:52:00,55.6,47.8,30.14,WSW,245,0.0,0.0,75,0.00,,FEW250,0.00,0.00,VWS V14.01,2013-06-06 03:52:00,
2013-06-05 23:55:00,55.4,47.6,30.14,WSW,245,0.0,0.0,75,0.00,,BKN250,0.00,0.00,VWS V14.01,2013-06-06 03:55:00,
2013-06-05 23:57:00,55.4,47.6,30.14,WSW,245,0.0,0.0,75,0.00,,FEW250,0.00,0.00,VWS V14.01,2013-06-06 03:57:00,